Showing default

CAS500-2, 69013

Orbit data source: Space-Track

CAS500-2, 69013 is a payload satellite owned by KAIST (KR) in SSO that was launched on Sun, 03 May 2026 UTC via an FALCON 9 launch vehicle from the Air Force Western Test Range (AFWTR). Payload-class satellites include a variety of spacecraft equipped with specific instruments for various scientific and technological missions. These include communications satellites like Starlink; space stations such as the ISS; scientific satellites like the Hubble; Earth observation satellites from companies like Planet Labs, Umbra, and HawkEye 360; GPS; miniature CubeSats for education and research; and military/defense satellites.

Loading next visibility...
Identifier
69013, 2026-100AK
Orbit
SSO
Country
Flag of KRKR / SKOR
Related business
Manufacturer
SatRec Initiative
Mission
Operational Civil Technology
Bus & Motor
CAS500, Unknown motor
Mass
516 kg wet, 516 kg dry
Launch date (UTC)
2026-05-03 (4 months ago)
Launch vehicle
FALCON 9
Launch site
Air Force Western Test Range (AFWTR)
Object type
Payload
Rocket body
Debris
Shape & HBR
Box + 4 Pan, 2.3 m
Radar Cross Section
7.561 m², Large (>1 m²)

Expand to show TLE details & history
Last TLE update: 1 day ago

TLE from 1 day ago
0 CAS500-2
1 69013U 26100AK  26254.69553051  .00004050  00000-0  18969-3 0  9996
2 69013  97.3762 150.7847 0011234  75.8592 284.3891 15.20219217 19953
Epoch: 2026-09-11T16:41Z
TLE epoch observation values (Epoch: 2026-09-11T16:41:33.836Z)
Latitude
0.00001°
Longitude
-90.32148°
Altitude
506.356 km
Speed
7.612 km/s
True Right ascension
10h 03m 08s
True Declination
0° 00' 00"
Sunlit
Object was in daylight at epoch
Visualization orbit readout
Latitude
Unknown
Longitude
Unknown
Altitude
Unknown
Speed
Unknown
Apparent Right ascension
Unknown
Apparent Declination
Unknown
Sunlit
N/A
Visualization observer readout
Local Sidereal Time
09:16:01
Azimuth
Unknown
Elevation
Unknown
Doppler factor
Unknown
Orbital elements
Apogee altitude
509.872 km
Perigee altitude
494.414 km
Semi-major axis
6,880.28 km
Eccentricity
0.00112
Inclination
97.3762°
RAAN
150.7847°
Arg. of periapsis
75.8592°
True anomaly
284.26436°
Mean anomaly
284.3891°
Eccentric anomaly
284.32674°
Mean motion
3.80307 °/min
Orbital period
94.66 mins
BSTAR
0.00018969
Loading maneuver chart data...
Computing Atmospheric mass density...
Loading historical data...
Loading historical data...
Loading historical data...
Loading historical data...
Loading historical data...
Loading historical data...
Loading historical data...

Documentation

Showing up to 5 results
|